Home   Weather   Telfs   Past weeks

Flag for Austria Past Weather in Telfs, Tyrol, Austria — Yesterday and Last 2 Weeks

Now
72 °F

Sprinkles. Broken clouds.


Feels Like: 77 °F
Forecast: 54 / 61 °F
Wind: 8 mph from Southeast

Location: Innsbruck-Flughafen

Current Time: Jun 28, 2017 at 5:42:31 pm

Latest Report: Jun 28, 2017 at 4:50 pm


Visibility: N/A

Pressure: 29.56 "Hg (27.48 "Hg at 630m altitude)

Humidity: 53%

Dew Point: 54 °F

Location of TelfsLocation

Past Weather in Telfs — Graph

°F

Telfs Temperature Yesterday

Maximum temperature yesterday: 82 °F (at 2:20 pm)
Minimum temperature yesterday: 63 °F (at 3:50 am)
Average temperature yesterday: 71 °F

High & Low Weather Summary for the Past Weeks

 TemperatureHumidityPressure
High93 °F (Jun 22, 4:20 pm)94% (Jun 16, 2:20 am)30.30 "Hg (Jun 16, 2:20 am)
Low54 °F (Jun 19, 4:50 am)21% (Jun 23, 3:50 pm)29.56 "Hg (Jun 28, 3:50 pm)
Average72 °F60%30.04 "Hg
* Reported Jun 13 4:20 pm — Jun 28 4:20 pm, Telfs. Weather by CustomWeather, © 2017

Note: Actual official high and low records may vary slightly from our data, if they occured in-between our weather recording intervals... More about our weather records

Advertising

Telfs Weather History for the Previous 24 Hours

Scroll right to see more
 ConditionsComfort  
Time TempWeatherWind HumidityBarometerVisibility
4:20 pm
Wed, Jun 28
72 °FThundershowers. Broken clouds.8 mph57%29.56 "HgN/A
3:50 pm73 °FThunderstorms. Broken clouds.6 mph53%29.56 "HgN/A
3:20 pm73 °FSprinkles. Broken clouds.10 mph61%29.59 "HgN/A
2:50 pm73 °FPartly sunny.5 mph50%29.59 "HgN/A
2:20 pm73 °FBroken clouds.6 mph57%29.59 "HgN/A
1:50 pm72 °FScattered clouds.2 mph65%29.59 "HgN/A
1:20 pm73 °FPartly sunny.5 mph61%29.62 "HgN/A
12:50 pm70 °FPartly sunny.3 mph73%29.65 "HgN/A
12:20 pm66 °FBroken clouds.7 mph78%29.68 "HgN/A
11:50 am63 °FSprinkles. Broken clouds.8 mph83%29.68 "HgN/A
11:20 am64 °FSprinkles. Broken clouds.17 mph73%29.68 "HgN/A
10:50 am70 °FSprinkles. Broken clouds.10 mph57%29.65 "HgN/A
10:20 am70 °FBroken clouds.12 mph57%29.65 "HgN/A
9:50 am72 °FBroken clouds.17 mph57%29.62 "HgN/A
9:20 am72 °FPartly sunny.13 mph61%29.62 "HgN/A
8:50 am73 °FScattered clouds.7 mph53%29.62 "HgN/A
8:20 am68 °FScattered clouds.5 mph69%29.62 "HgN/A
7:50 am66 °FScattered clouds.3 mph73%29.65 "HgN/A
7:20 am64 °FBroken clouds.10 mph78%29.65 "HgN/A
6:50 am64 °FBroken clouds.15 mph78%29.65 "HgN/A
6:20 am63 °FBroken clouds.9 mph83%29.65 "HgN/A
5:50 am63 °FBroken clouds.3 mph83%29.65 "HgN/A
5:20 am64 °FPartly sunny.5 mph73%29.65 "HgN/A
4:50 am64 °FPartly cloudy.7 mph78%29.65 "HgN/A
4:20 am64 °FPassing clouds.6 mph78%29.68 "HgN/A
3:50 am64 °FScattered showers. Passing clouds.10 mph78%29.68 "HgN/A
3:20 am64 °FPassing clouds.7 mph78%29.68 "HgN/A
2:50 am66 °FOvercast.6 mph73%29.68 "HgN/A
2:20 am64 °FPassing clouds.8 mph78%29.68 "HgN/A
1:50 am66 °FPassing clouds.7 mph73%29.71 "HgN/A
1:20 am66 °FPassing clouds.1 mph73%29.71 "HgN/A
12:50 am68 °FPassing clouds.5 mph69%29.74 "HgN/A
12:20 am70 °FPassing clouds.9 mph64%29.74 "HgN/A
11:50 pm
Tue, Jun 27
68 °FPassing clouds.12 mph73%29.74 "HgN/A
11:20 pm68 °FPassing clouds.10 mph78%29.74 "HgN/A
10:50 pm70 °FPassing clouds.14 mph69%29.74 "HgN/A
10:20 pm70 °FPassing clouds.14 mph69%29.74 "HgN/A
9:50 pm72 °FPassing clouds.13 mph61%29.74 "HgN/A
9:20 pm73 °FPassing clouds.13 mph57%29.74 "HgN/A
8:50 pm73 °FPassing clouds.12 mph57%29.74 "HgN/A
8:20 pm73 °FScattered clouds.14 mph61%29.74 "HgN/A
7:50 pm75 °FScattered clouds.12 mph57%29.74 "HgN/A
7:20 pm77 °FScattered clouds.10 mph54%29.74 "HgN/A
6:50 pm79 °FScattered clouds.14 mph39%29.74 "HgN/A
6:20 pm79 °FScattered clouds.16 mph39%29.74 "HgN/A
5:50 pm81 °FScattered clouds.16 mph39%29.74 "HgN/A
5:20 pm79 °FScattered clouds.21 mph42%29.74 "HgN/A
Weather by CustomWeather, © 2017

See weather overviewHow to use our weather pages